Flag for Finland Weather past 2 weeks in Tampere, Finland

Now
50 °F

Scattered clouds.


Feels Like: 47 °F
Forecast: 34 / 50 °F
Wind: 8 mph from North

Location: Tampere / Pirkkala

Current Time: Sep 30, 2014 at 4:59:26 PM

Latest Report: Sep 30, 2014 at 4:20 PM


Visibility: N/A

Pressure: 30.24 "Hg

Humidity: 58%

Dew point: 36 °F

Location of TampereLocation

Historic Weather in Tampere — Graph

°F

Tampere temperature yesterday

Maximum temperature yesterday: 57 °F (at 3:50 PM)
Minimum temperature yesterday: 45 °F (at 7:20 AM)
Average temperature yesterday: 49 °F

Past Weeks' High & Low Weather Summary

 TemperatureHumidityPressure
High64 °F (Sep 16, 4:20 PM)100% (Sep 16, 12:20 AM)30.48 "Hg (Sep 16, 12:20 AM)
Low32 °F (Sep 23, 7:20 AM)36% (Sep 23, 3:20 PM)29.33 "Hg (Sep 26, 11:20 PM)
Average48 °F84%29.92 "Hg
* Reported Sep 15 3:20 PM — Sep 30 3:50 PM, Tampere, Weather by CustomWeather, © 2014

Note: Actual official high and low records may vary slightly from our data, if they occured in-between our weather recording intervals... More about our weather records

Advertising

Tampere weather history for previous 24 hours

 ConditionsComfort  
Time TempWeatherWind HumidityBarometerVisibility
3:50 PM
Sep 30
50 °FPartly sunny.6 mph58%30.24 "HgN/A
3:20 PM50 °FPartly sunny.8 mph58%30.24 "HgN/A
2:50 PM50 °FPartly sunny.10 mph58%30.21 "HgN/A
2:20 PM50 °FPartly sunny.9 mph62%30.21 "HgN/A
1:50 PM50 °FPartly sunny.8 mph62%30.21 "HgN/A
1:20 PM50 °FPartly sunny.12 mph58%30.18 "HgN/A
12:50 PM48 °FPartly sunny.12 mph66%30.18 "HgN/A
12:20 PM48 °FScattered clouds.10 mph66%30.15 "HgN/A
11:50 AM48 °FPartly sunny.9 mph71%30.15 "HgN/A
11:20 AM48 °FPassing clouds.9 mph66%30.15 "HgN/A
10:50 AM46 °FPassing clouds.7 mph76%30.12 "HgN/A
10:20 AM45 °FSunny.9 mph76%30.12 "Hg10 mi
9:50 AM45 °FSunny.8 mph76%30.12 "Hg10 mi
9:20 AM43 °FSunny.7 mph81%30.09 "Hg10 mi
8:50 AM41 °FPassing clouds.3 mph87%30.09 "HgN/A
8:20 AM41 °FPassing clouds.5 mph81%30.07 "HgN/A
7:50 AM41 °FClear.6 mph81%30.07 "Hg10 mi
7:20 AM41 °FClear.6 mph81%30.07 "Hg10 mi
6:50 AM41 °FClear.8 mph87%30.04 "Hg10 mi
6:20 AM41 °FClear.6 mph81%30.04 "Hg10 mi
5:50 AM43 °FClear.7 mph76%30.01 "Hg10 mi
5:20 AM43 °FClear.7 mph81%30.01 "Hg10 mi
4:50 AM45 °FClear.8 mph76%30.01 "Hg10 mi
4:20 AM45 °FClear.7 mph76%29.98 "Hg10 mi
3:50 AM45 °FClear.9 mph81%29.98 "Hg10 mi
2:50 AM46 °FClear.10 mph76%29.95 "Hg10 mi
2:20 AM46 °FPassing clouds.10 mph76%29.95 "HgN/A
1:50 AM46 °FClear.12 mph76%29.92 "Hg10 mi
1:20 AM46 °FClear.9 mph76%29.92 "Hg10 mi
12:50 AM46 °FClear.10 mph76%29.92 "Hg10 mi
12:20 AM48 °FClear.12 mph71%29.89 "Hg10 mi
11:50 PM
Sep 29
46 °FClear.10 mph76%29.89 "Hg10 mi
11:20 PM48 °FPassing clouds.10 mph71%29.89 "HgN/A
10:50 PM48 °FClear.10 mph71%29.89 "Hg10 mi
10:20 PM46 °FClear.10 mph76%29.86 "Hg10 mi
9:50 PM48 °FPassing clouds.10 mph71%29.86 "HgN/A
9:20 PM46 °FClear.8 mph76%29.86 "Hg10 mi
8:50 PM48 °FClear.12 mph71%29.86 "Hg10 mi
8:20 PM48 °FClear.10 mph71%29.86 "Hg10 mi
7:50 PM50 °FSunny.12 mph67%29.86 "Hg10 mi
7:20 PM48 °FSunny.12 mph71%29.86 "Hg10 mi
6:50 PM50 °FSunny.10 mph67%29.86 "Hg10 mi
6:20 PM50 °FSunny.12 mph62%29.83 "Hg10 mi
5:50 PM52 °FSunny.13 mph58%29.83 "Hg10 mi
5:20 PM54 °FSunny.13 mph58%29.83 "Hg10 mi
4:50 PM54 °FSunny.12 mph72%29.83 "Hg10 mi
4:20 PM54 °FPassing clouds.14 mph67%29.83 "HgN/A
Weather by CustomWeather, © 2014

See weather overviewHow to use our weather pages